Theta_e
316 316 316 316 316 316 316 316 316 316 317 318 318 318 317 317 317 317 318 319 319 320 321 320 320 321 309 297 297 309 319 314 309 307 302 299 296 294 291 292 293 291 292 293 293 293 291
318 317 316 316 315 316 316 316 315 316 316 317 317 317 316 316 316 317 317 318 319 319 320 320 321 319 299 289 307 309 307 307 306 304 300 300 296 296 295 293 292 293 293 292 293 291 291
319 318 318 317 316 315 315 316 315 315 315 316 316 316 315 315 316 316 317 317 318 318 318 318 320 308 298 294 306 306 306 304 304 303 298 301 300 296 295 292 295 294 290 290 290 291 290
320 319 319 318 318 316 315 315 315 315 315 315 315 315 314 314 315 316 316 317 318 318 318 318 319 300 293 305 304 304 305 303 304 304 302 301 299 297 295 294 291 288 287 284 289 292 290
322 321 320 319 319 318 317 316 316 315 315 315 314 314 313 314 314 315 315 317 318 317 318 317 301 300 294 310 301 303 302 301 302 301 302 302 297 292 292 287 283 283 279 281 284 292 290
321 321 322 320 319 319 318 317 316 316 315 315 314 313 313 313 313 315 316 316 315 311 307 304 301 292 296 295 300 302 301 303 299 297 296 294 290 286 285 282 278 279 280 280 281 289 288
323 322 322 322 320 319 318 318 317 316 316 315 314 313 312 312 313 314 309 299 296 294 296 291 292 292 296 301 303 299 300 299 297 294 285 288 284 281 285 285 282 281 281 280 282 289 288
325 324 323 323 322 320 319 319 318 317 316 315 314 313 312 312 313 313 301 295 296 297 289 296 296 296 299 299 294 297 300 292 290 286 287 284 282 284 287 287 285 282 280 280 283 289 288
325 325 324 323 323 322 321 319 319 318 316 315 313 313 312 312 313 302 297 297 303 301 289 292 296 295 295 298 293 294 296 293 289 286 285 281 284 290 288 285 284 282 280 280 281 284 286
326 326 325 324 323 322 322 320 319 318 317 315 313 312 311 312 301 294 294 302 303 300 282 285 291 294 297 297 291 297 295 293 289 287 286 284 288 288 286 285 284 280 283 284 283 280 278
323 326 325 324 323 322 322 321 320 319 317 315 313 312 310 309 293 293 297 302 302 293 274 288 291 298 295 291 292 292 295 292 287 287 286 283 286 285 284 285 286 282 285 283 281 279 276
321 322 324 324 323 322 322 321 320 319 318 315 313 311 309 297 293 297 302 299 295 283 274 286 290 289 288 289 290 292 290 291 290 286 284 282 287 286 286 286 285 286 283 281 279 278 273
317 319 320 322 323 322 322 321 320 319 318 315 313 311 306 300 290 299 300 291 281 276 285 284 286 287 285 285 287 288 286 283 283 279 279 282 283 285 288 284 285 281 278 275 274 273 274
314 315 318 319 319 321 322 321 321 320 318 316 313 310 301 300 299 299 292 285 276 282 282 288 287 285 283 286 284 285 283 281 282 282 278 278 278 284 286 283 282 280 279 277 274 273 275
314 313 314 316 318 319 319 320 321 319 318 314 305 297 297 297 301 295 287 277 279 282 287 286 285 281 281 284 284 282 281 281 283 284 281 279 279 282 283 283 284 281 278 280 276 273 271
314 313 313 313 314 318 317 318 319 320 317 308 298 296 296 300 300 294 283 282 282 286 288 286 283 284 280 281 281 281 281 283 284 284 282 281 277 280 281 282 282 281 282 277 276 273 271
314 313 313 313 314 315 315 316 318 320 315 305 298 295 298 301 299 290 282 279 284 288 289 286 284 282 281 281 282 279 280 283 284 282 281 280 280 276 279 279 279 279 278 277 277 276 272
312 313 313 312 313 313 314 315 317 318 307 305 296 293 299 300 289 288 284 284 290 288 290 288 284 284 282 282 280 279 281 282 285 284 281 280 278 274 277 276 277 278 279 278 276 274 272
311 311 312 312 312 312 312 313 314 314 311 301 295 295 302 299 283 283 286 287 289 288 288 288 286 286 284 283 281 281 281 283 284 283 281 281 277 272 275 276 275 275 277 277 275 275 271
310 309 310 312 312 311 311 311 312 313 310 304 295 290 292 293 291 287 286 286 286 290 289 289 288 287 283 281 282 281 281 282 283 283 289 286 277 278 280 280 276 274 276 277 277 270 274
310 308 310 311 311 311 310 310 311 311 310 304 295 293 293 285 286 287 287 286 287 286 288 289 287 286 285 282 282 281 280 279 282 286 282 281 276 275 276 277 277 277 276 276 276 279 276
310 308 308 309 310 310 310 309 310 312 310 300 293 290 292 290 291 288 286 285 287 289 288 287 285 287 287 284 284 281 282 281 282 282 281 280 278 277 276 277 277 275 277 276 277 279 278
309 309 307 307 309 310 309 308 309 311 308 299 294 295 294 290 288 286 286 287 287 290 291 291 289 288 286 288 288 286 285 284 283 281 280 279 278 278 276 274 276 277 274 278 280 278 280
308 308 307 307 308 309 309 309 308 310 308 300 295 295 290 284 288 287 290 289 287 288 286 287 286 285 284 285 286 285 283 283 283 280 283 278 278 279 275 275 271 278 272 272 274 275 272
308 307 307 307 308 308 309 309 308 309 309 299 296 296 291 285 287 288 289 289 288 286 285 285 285 284 286 285 281 278 278 280 278 278 278 279 280 276 273 272 275 272 271 271 273 274 271
307 307 306 307 308 308 308 309 308 309 309 300 297 298 294 287 286 290 289 288 284 283 282 283 283 285 284 283 281 277 275 279 273 273 276 278 280 279 273 271 270 271 271 273 271 269 267
307 306 306 306 306 306 307 308 308 308 308 300 295 296 295 289 287 288 287 286 287 284 282 281 281 281 283 280 279 278 277 278 273 271 270 273 274 275 273 272 273 272 273 273 269 271 270
305 306 305 304 303 305 306 307 308 308 307 301 292 294 295 289 283 283 284 285 285 285 281 281 280 279 279 277 278 278 277 276 275 274 272 273 272 272 274 271 269 273 272 272 272 271 271
303 303 303 303 304 304 305 305 306 307 307 301 290 291 291 288 281 284 284 284 283 283 283 282 281 280 281 279 279 280 277 275 275 273 274 272 277 274 275 274 273 274 273 273 273 272 271
Wind_Speed
7 7 8 9 10 11 11 11 11 11 13 14 15 16 14 13 12 11 11 11 10 9 8 8 8 9 2 3 3 5 12 10 4 3 4 3 3 3 4 2 2 4 2 5 5 9 8
8 9 10 10 9 10 11 12 13 12 12 12 13 14 15 14 12 12 11 10 10 8 7 7 7 9 1 1 1 6 7 5 5 4 3 6 2 2 6 4 4 3 6 5 2 4 5
8 10 10 11 12 12 10 11 12 13 13 12 13 14 15 15 15 14 12 10 9 7 7 7 6 2 1 5 2 6 6 1 3 2 2 2 1 3 3 4 4 4 4 2 2 4 4
6 8 10 11 12 13 13 13 11 12 14 16 13 13 15 16 16 16 15 13 10 6 5 4 5 1 4 1 1 3 5 1 5 2 2 1 2 6 4 4 6 4 5 2 2 5 1
9 7 8 8 11 13 15 14 15 14 12 14 17 15 13 14 16 18 17 17 9 4 4 4 1 1 5 3 2 3 1 1 3 2 3 3 6 4 4 6 5 6 3 4 2 5 5
10 11 11 8 7 8 12 14 16 16 16 15 14 17 17 15 14 17 19 9 5 3 2 2 2 3 1 1 2 2 2 2 4 2 4 7 6 4 4 4 6 6 4 4 4 6 4
12 11 10 10 11 9 7 11 13 16 17 16 17 16 18 17 16 14 9 4 5 3 3 6 3 2 1 0 1 2 2 1 2 7 3 3 4 7 11 7 2 5 4 3 3 4 4
12 12 11 12 11 10 10 11 9 12 14 17 18 18 19 19 17 9 3 3 2 1 7 2 1 2 1 2 1 2 1 3 2 4 4 5 6 6 4 5 3 3 2 3 2 3 4
13 13 12 12 12 13 11 10 11 10 12 13 16 19 20 20 17 4 2 3 2 2 1 4 3 3 3 4 3 4 2 3 3 5 5 6 2 5 4 4 5 3 5 4 3 2 2
13 14 14 13 13 12 12 11 10 10 9 10 12 16 19 25 4 2 2 2 2 2 5 5 2 2 2 3 3 0 0 2 1 8 7 4 1 5 3 3 6 2 2 2 4 3 4
10 11 15 15 14 13 13 12 11 11 9 8 9 13 14 11 7 1 1 1 3 4 5 1 2 0 1 5 4 1 1 1 5 5 6 5 5 4 3 3 5 4 3 4 3 4 2
13 12 12 14 15 13 13 13 12 11 10 8 8 10 12 4 3 4 1 1 3 9 10 3 4 5 3 2 2 2 1 3 2 4 2 1 0 1 4 2 2 8 5 7 5 3 2
14 14 13 11 11 13 15 13 13 13 11 8 7 8 7 1 4 3 3 4 6 6 2 3 4 4 4 6 4 5 5 4 7 5 5 0 2 1 3 5 3 4 5 3 5 2 7
14 15 15 14 13 13 13 14 14 14 12 8 3 8 4 4 1 3 4 5 6 7 8 4 3 2 5 8 4 5 5 4 4 4 4 7 6 9 5 4 7 6 7 7 7 5 3
11 12 13 14 13 12 12 13 14 14 12 5 6 2 4 4 3 3 5 4 10 9 6 10 5 4 5 4 5 5 7 6 10 13 11 7 5 1 0 1 3 5 6 2 5 3 2
12 12 12 13 14 13 13 15 14 14 10 10 2 2 3 4 2 2 3 11 7 4 5 4 10 9 8 5 5 6 9 5 6 10 1 7 2 0 2 1 1 3 4 4 2 4 6
10 11 12 12 11 10 12 14 14 13 12 12 3 1 2 3 3 3 8 9 8 8 5 9 10 6 6 10 10 7 5 4 4 5 2 6 4 1 3 9 10 4 3 1 3 5 6
11 11 11 11 9 10 14 12 13 9 18 5 4 2 3 3 3 3 9 6 5 5 3 7 3 8 11 10 9 8 10 7 8 11 10 6 5 6 8 1 1 2 7 7 6 6 2
14 12 12 11 10 9 10 9 10 14 17 5 3 2 2 2 5 6 6 6 4 3 5 6 8 8 6 10 4 9 8 2 7 9 11 10 4 2 4 2 2 6 7 4 4 4 8
14 14 13 12 10 10 10 10 10 19 11 2 2 3 2 2 1 5 6 10 10 2 6 3 2 2 1 6 6 5 7 1 3 4 2 4 4 9 11 6 7 6 7 7 6 5 5
14 14 14 14 12 9 9 10 10 18 15 3 3 2 1 3 6 9 2 3 7 9 2 4 4 7 5 6 2 5 2 2 2 3 2 5 7 4 2 1 2 4 5 12 13 13 11
16 14 12 14 13 11 8 8 10 18 13 1 3 3 3 3 2 5 8 4 8 8 4 6 14 6 3 5 2 2 2 1 1 2 5 1 2 2 1 4 1 6 8 8 15 10 13
18 14 14 14 13 13 8 7 8 14 12 2 1 1 1 3 1 2 5 7 6 4 6 9 6 9 11 10 6 6 5 3 2 1 3 2 4 4 5 3 5 11 11 22 12 7 11
20 14 15 16 14 14 11 9 8 13 12 2 3 3 3 4 6 5 4 5 7 7 5 3 2 4 2 5 6 7 6 4 4 4 4 6 6 3 2 0 6 4 2 2 4 3 3
20 16 15 15 15 14 15 11 9 12 20 2 2 2 4 4 6 6 9 8 3 2 3 3 1 3 4 2 1 2 1 2 3 1 2 2 4 4 5 5 9 2 4 6 6 5 6
20 16 15 14 12 13 15 12 11 11 16 3 2 2 1 0 6 5 3 1 3 2 0 2 2 1 1 3 3 5 6 3 3 1 1 2 2 2 3 4 7 4 2 1 2 6 5
19 15 13 15 11 11 12 11 12 11 13 5 2 2 1 4 1 1 3 3 4 2 1 2 2 3 3 2 2 3 3 2 5 7 6 4 1 8 4 3 7 2 3 3 6 5 4
14 14 13 12 16 15 13 15 11 13 10 7 2 1 2 2 2 3 4 2 2 2 2 4 2 4 2 3 3 3 3 3 3 3 5 7 8 4 3 2 9 3 3 4 1 2 5
11 13 14 15 16 18 18 14 13 14 13 10 2 0 1 3 2 2 3 2 3 3 2 2 2 2 2 2 2 1 2 2 1 2 2 4 3 4 5 2 1 2 1 1 2 4 4
Wind_Direction
351 1 360 2 4 360 359 1 3 1 357 356 353 348 350 345 347 341 339 339 335 331 333 335 335 331 316 25 276 335 341 342 8 14 53 40 63 101 106 81 58 76 122 53 77 87 79
338 344 348 347 354 359 355 354 356 354 357 353 351 345 341 339 338 333 336 336 323 327 329 334 340 330 40 319 324 339 344 352 20 27 22 37 98 139 98 69 63 54 87 121 71 94 96
324 331 336 339 340 342 348 351 351 347 345 351 350 343 341 336 335 330 326 326 319 323 324 330 350 22 72 233 349 325 6 355 3 22 62 47 43 74 97 88 158 134 77 92 132 165 139
281 312 325 329 333 334 337 337 343 346 346 341 342 345 343 336 332 328 323 319 311 301 303 319 341 22 235 276 246 10 337 3 7 21 94 89 40 97 62 119 32 63 55 118 201 153 130
273 256 273 296 319 327 328 331 331 336 342 343 337 336 336 336 335 332 323 313 293 291 281 303 77 90 277 324 45 297 19 21 315 18 43 75 66 83 49 87 31 9 207 206 260 202 136
272 282 289 281 273 310 319 324 327 329 334 336 339 333 332 334 338 335 324 296 300 357 50 75 38 35 304 206 289 324 339 67 87 74 37 46 53 76 48 95 214 199 208 232 226 207 158
277 280 280 280 278 288 292 309 320 324 327 331 333 335 329 331 333 342 353 10 10 325 35 197 195 205 186 235 360 360 356 62 80 55 139 11 97 199 207 186 139 142 180 210 222 175 144
261 269 275 277 269 267 284 295 301 313 321 328 330 332 328 325 328 331 71 63 25 267 308 217 218 277 247 148 242 253 352 150 143 165 122 35 232 217 149 163 169 175 169 250 280 134 165
255 261 261 264 271 273 270 274 290 303 313 323 328 329 329 324 316 22 70 126 323 300 260 290 204 187 200 136 224 209 170 155 142 142 175 162 233 129 139 142 158 197 182 194 210 96 183
256 256 258 260 260 265 266 265 270 284 297 310 324 328 334 328 327 295 327 153 49 339 42 264 235 278 97 127 257 253 16 160 121 188 162 223 202 154 143 178 137 223 204 128 142 105 227
345 289 257 257 256 253 258 258 261 272 279 293 312 323 335 351 297 326 271 284 104 70 3 209 187 338 139 166 134 266 274 78 169 167 114 248 165 161 160 194 171 203 84 93 68 101 56
333 339 313 262 255 251 253 254 255 256 262 278 298 317 338 5 313 290 296 354 25 51 260 216 150 169 148 226 206 146 172 56 101 109 42 197 290 148 166 93 89 149 79 48 61 74 323
331 329 337 328 261 254 254 245 246 249 248 249 282 312 327 125 245 325 336 31 42 149 286 241 224 173 192 192 210 182 172 175 160 116 214 151 214 168 148 93 31 92 85 329 344 6 229
329 331 333 327 336 318 258 255 249 243 241 238 284 337 287 232 249 80 28 36 198 231 207 132 102 67 203 165 218 183 147 212 229 110 126 163 289 175 181 193 176 178 165 169 224 206 247
317 321 325 328 324 316 319 306 267 250 230 188 57 38 298 311 176 89 80 222 209 203 190 150 123 181 245 231 174 160 211 216 202 176 174 154 260 77 117 148 133 189 196 176 105 63 53
309 314 316 319 320 321 326 325 304 267 215 128 66 82 261 1 2 78 129 228 240 239 134 143 184 169 193 196 182 184 186 206 216 192 181 197 139 232 121 77 8 174 167 87 3 211 247
293 301 310 314 316 320 315 321 308 287 157 129 73 42 17 50 40 312 222 223 248 235 188 174 199 194 214 174 182 206 228 264 182 151 139 141 126 171 122 202 178 152 202 82 137 168 198
312 300 298 303 306 315 319 325 333 320 134 95 115 268 9 350 130 201 248 204 230 242 191 252 215 197 186 188 193 207 211 225 160 149 166 199 136 180 195 146 68 220 200 168 153 214 222
295 304 303 297 296 292 300 311 328 163 163 133 182 145 68 50 201 217 263 264 259 273 231 202 230 207 185 189 214 198 196 17 158 167 163 182 206 90 324 352 5 218 194 161 108 83 192
285 289 293 291 288 290 292 301 322 169 180 140 204 158 144 133 252 283 253 256 256 235 283 246 245 336 191 220 252 221 207 139 179 192 110 112 181 186 208 181 130 194 189 180 155 142 183
272 282 290 287 281 284 291 296 306 182 187 125 259 183 134 198 218 211 320 309 266 235 271 328 255 205 235 236 222 227 102 106 29 204 102 169 219 182 265 29 196 205 172 180 202 214 202
272 267 278 289 292 272 281 289 290 191 185 177 173 200 115 290 276 215 170 234 245 238 206 232 239 189 132 224 214 59 102 228 223 41 160 108 195 122 273 63 256 265 237 204 218 232 256
267 263 274 279 287 272 254 277 279 199 170 174 127 64 231 186 266 238 214 187 253 293 235 238 282 237 234 234 201 149 146 141 86 146 145 172 131 72 249 352 11 294 199 210 212 197 218
269 256 268 273 278 277 248 244 265 207 187 137 187 122 139 258 214 210 253 217 232 234 271 298 264 210 98 100 94 85 70 78 169 160 165 158 156 171 195 38 223 233 197 125 228 210 169
271 256 264 274 275 276 242 227 240 228 194 150 167 159 162 250 222 257 244 260 282 231 223 266 256 324 133 198 109 136 116 139 155 25 218 313 162 172 179 213 321 268 214 173 166 269 173
267 251 263 267 273 285 258 216 220 225 212 138 201 142 257 171 237 235 259 162 271 228 111 133 13 20 342 237 191 210 205 167 162 51 134 239 304 245 142 203 226 261 241 192 158 298 172
255 248 257 266 269 269 273 252 230 224 217 150 160 207 143 253 55 302 210 230 167 234 87 107 185 220 264 184 210 224 221 57 176 167 156 150 193 225 183 226 284 236 140 186 94 256 135
249 255 259 278 271 272 268 248 232 227 224 154 122 240 194 209 136 11 12 254 170 221 198 127 120 237 193 194 207 205 207 196 156 129 171 161 163 191 155 191 266 141 99 185 211 56 120
258 261 265 269 266 266 274 272 253 235 206 152 120 75 9 93 90 35 85 31 353 357 331 181 285 242 198 177 225 175 154 137 124 194 141 215 215 174 206 208 326 156 36 346 134 129 146